DW2789 Weather Reports


Display with metric or nautical units.
time (UTC)temp
F
wind
direction
speed
MPH
gust
MPH
rain 1hr
in
rain 24hr
in
rain mn
in
humidity
%
barometer
mb
20260510111927 56 257 0.0 0.0 0.00 0.00 0.00 61 1014.0
20260510110935 58 257 0.0 0.0 0.00 0.00 0.00 58 1013.9
20260510105938 59 257 0.0 0.0 0.00 0.00 0.00 57 1013.9
20260510104942 58 256 1.0 5.0 0.00 0.00 0.00 56 1013.8
20260510103944 58 256 0.0 7.0 0.00 0.00 0.00 57 1013.8
20260510102932 56 256 0.0 0.0 0.00 0.00 0.00 59 1013.8
20260510101934 56 257 0.0 0.0 0.00 0.00 0.00 61 1014.0
20260510100937 55 257 0.0 0.0 0.00 0.00 0.00 63 1014.1
20260510095942 55 256 0.0 0.0 0.00 0.00 0.00 63 1014.1
20260510094933 55 256 0.0 0.0 0.00 0.00 0.00 62 1014.0
20260510093936 55 257 0.0 0.0 0.00 0.00 0.00 63 1014.1
20260510092937 55 257 0.0 0.0 0.00 0.00 0.00 62 1014.3
20260510090942 55 257 0.0 4.0 0.00 0.00 0.00 63 1014.5
20260510085941 54 257 0.0 4.0 0.00 0.00 0.00 64 1014.6
20260510084942 54 256 0.0 0.0 0.00 0.00 0.00 64 1014.7
20260510083946 54 257 0.0 0.0 0.00 0.00 0.00 63 1014.6
20260510082949 54 256 0.0 0.0 0.00 0.00 0.00 63 1014.8
20260510081936 54 257 0.0 0.0 0.00 0.00 0.00 62 1014.9
20260510080938 55 256 0.0 0.0 0.00 0.00 0.00 61 1014.9
20260510075940 55 256 0.0 0.0 0.00 0.00 0.00 60 1014.9
20260510074947 55 256 0.0 0.0 0.00 0.00 0.00 60 1014.9
20260510073932 56 256 0.0 0.0 0.00 0.00 0.00 59 1015.0
20260510072934 56 257 0.0 0.0 0.00 0.00 0.00 58 1015.0
20260510071941 57 257 0.0 0.0 0.00 0.00 0.00 57 1015.0
20260510071001 58 257 0.0 3.0 0.00 0.00 0.00 54 1014.9
20260510065929 58 257 1.0 4.0 0.00 0.00 0.00 53 1014.8
20260510064932 57 257 0.0 0.0 0.00 0.00 0.00 54 1014.9
20260510063938 57 256 0.0 0.0 0.00 0.00 0.00 55 1014.9
20260510061945 57 257 0.0 6.0 0.00 0.00 0.00 57 1015.1
20260510060944 56 256 0.0 2.0 0.00 0.00 0.00 59 1015.1
20260510055941 56 257 0.0 0.0 0.00 0.00 0.00 60 1015.2
20260510054942 56 257 0.0 0.0 0.00 0.00 0.00 61 1015.4
20260510053959 57 256 0.0 0.0 0.00 0.00 0.00 62 1015.4
20260510052946 57 257 0.0 0.0 0.00 0.00 0.00 62 1015.4
20260510051932 57 257 0.0 0.0 0.00 0.00 0.00 62 1015.6
20260510050935 58 257 0.0 0.0 0.00 0.00 0.00 62 1015.6
20260510045940 58 257 0.0 0.0 0.00 0.00 0.00 62 1015.8
20260510045005 58 256 1.0 8.0 0.00 0.00 0.00 62 1015.8
20260510043945 58 257 6.0 10.0 0.00 0.00 0.00 63 1015.9
20260510042935 57 257 0.0 2.0 0.00 0.00 0.00 63 1015.9
20260510041938 58 257 0.0 0.0 0.00 0.00 0.00 63 1016.2
20260510040941 58 257 0.0 0.0 0.00 0.00 0.00 62 1016.0
20260510035943 59 256 0.0 0.0 0.00 0.00 0.00 61 1016.0
20260510034931 60 257 0.0 0.0 0.00 0.00 0.00 59 1016.0
20260510032946 63 257 0.0 0.0 0.00 0.00 0.00 56 1015.9
20260510031956 64 256 0.0 0.0 0.00 0.00 0.00 54 1015.8
20260510030936 65 257 0.0 0.0 0.00 0.00 0.00 54 1015.8
20260510025935 67 256 0.0 0.0 0.00 0.00 0.00 53 1015.8
20260510023939 70 257 0.0 0.0 0.00 0.00 0.00 49 1015.8
20260510022939 72 256 0.0 0.0 0.00 0.00 0.00 49 1015.8
20260510021933 73 257 0.0 0.0 0.00 0.00 0.00 46 1015.9
20260510020936 74 257 0.0 0.0 0.00 0.00 0.00 44 1015.9
20260510015943 75 257 0.0 0.0 0.00 0.00 0.00 45 1016.0
20260510014946 76 257 0.0 0.0 0.00 0.00 0.00 43 1016.0
20260510014008 77 256 0.0 0.0 0.00 0.00 0.00 40 1016.1
20260510012932 77 257 0.0 0.0 0.00 0.00 0.00 39 1016.1
20260510011938 78 256 0.0 0.0 0.00 0.00 0.00 37 1016.2
20260510010939 78 256 0.0 0.0 0.00 0.00 0.00 35 1016.3
20260510010004 79 256 0.0 0.0 0.00 0.00 0.00 34 1016.5
20260510004950 79 257 0.0 0.0 0.00 0.00 0.00 32 1016.5
20260510003952 78 257 0.0 0.0 0.00 0.00 0.00 34 1016.6
20260510002938 78 257 0.0 0.0 0.00 0.00 0.00 29 1016.7
20260510001940 78 256 0.0 0.0 0.00 0.00 0.00 30 1016.7
20260510000943 78 256 0.0 0.0 0.00 0.00 0.00 32 1016.7
20260509235948 78 257 0.0 0.0 0.00 0.00 0.00 32 1016.8
20260509234947 78 256 0.0 0.0 0.00 0.00 0.00 36 1016.9
20260509233945 77 257 0.0 0.0 0.00 0.00 0.00 39 1017.0
20260509232934 76 257 0.0 7.0 0.00 0.00 0.00 36 1017.1
20260509231934 76 256 1.0 7.0 0.00 0.00 0.00 36 1017.3
20260509230939 77 257 0.0 7.0 0.00 0.00 0.00 43 1017.2
20260509225946 76 256 0.0 7.0 0.00 0.00 0.00 43 1017.3
20260509224928 76 256 1.0 7.0 0.00 0.00 0.00 43 1017.3
20260509224011 76 257 0.0 8.0 0.00 0.00 0.00 41 1017.5
20260509222932 76 257 1.0 6.0 0.00 0.00 0.00 44 1017.5
20260509222001 75 257 2.0 7.0 0.00 0.00 0.00 41 1017.6
20260509220942 76 257 1.0 5.0 0.00 0.00 0.00 45 1017.5
20260509215945 76 256 0.0 8.0 0.00 0.00 0.00 41 1017.6
20260509214948 76 257 0.0 3.0 0.00 0.00 0.00 40 1017.8
20260509213935 75 257 1.0 6.0 0.00 0.00 0.00 45 1017.9
20260509212941 75 256 1.0 5.0 0.00 0.00 0.00 40 1018.0
20260509211943 74 257 5.0 8.0 0.00 0.00 0.00 42 1018.1
20260509210928 74 253 0.0 7.0 0.00 0.00 0.00 38 1018.3
20260509205937 74 253 4.0 9.0 0.00 0.00 0.00 41 1018.3
20260509204941 73 252 1.0 7.0 0.00 0.00 0.00 39 1018.4
20260509203941 73 252 0.0 11.0 0.00 0.00 0.00 39 1018.5
20260509202939 73 252 3.0 8.0 0.00 0.00 0.00 41 1018.5
20260509201942 72 252 1.0 6.0 0.00 0.00 0.00 43 1018.5
20260509200939 72 252 2.0 8.0 0.00 0.00 0.00 40 1018.7
20260509195936 72 252 4.0 9.0 0.00 0.00 0.00 41 1018.8
20260509194939 71 252 1.0 8.0 0.00 0.00 0.00 43 1018.9
20260509193941 71 252 0.0 6.0 0.00 0.00 0.00 44 1018.9
20260509192931 70 252 4.0 8.0 0.00 0.00 0.00 46 1019.2
20260509191934 69 252 5.0 8.0 0.00 0.00 0.00 46 1019.4
20260509190936 69 252 4.0 10.0 0.00 0.00 0.00 44 1019.5
20260509184955 69 251 0.0 7.0 0.00 0.00 0.00 51 1019.7
20260509183941 68 250 5.0 9.0 0.00 0.00 0.00 47 1019.8
20260509182943 68 251 4.0 9.0 0.00 0.00 0.00 48 1020.0
20260509181945 67 250 3.0 10.0 0.00 0.00 0.00 47 1020.0
20260509180947 67 250 3.0 11.0 0.00 0.00 0.00 47 1020.2
20260509175932 67 281 3.0 8.0 0.00 0.00 0.00 52 1020.2
20260509174945 66 282 5.0 10.0 0.00 0.00 0.00 52 1020.1
20260509173959 66 281 3.0 11.0 0.00 0.00 0.00 54 1020.2
20260509172957 65 281 5.0 11.0 0.00 0.00 0.00 54 1020.1
20260509171953 65 277 6.0 10.0 0.00 0.00 0.00 52 1020.2
20260509170934 64 276 9.0 12.0 0.00 0.00 0.00 51 1020.2
20260509165935 64 297 3.0 10.0 0.00 0.00 0.00 56 1020.3
20260509164935 63 302 4.0 9.0 0.00 0.00 0.00 58 1020.4
20260509163937 63 302 4.0 11.0 0.00 0.00 0.00 59 1020.4
20260509162940 62 306 6.0 11.0 0.00 0.00 0.00 59 1020.5
20260509161947 62 298 5.0 9.0 0.00 0.00 0.00 59 1020.6
20260509155943 61 281 4.0 8.0 0.00 0.00 0.00 59 1020.6
20260509154946 60 281 3.0 8.0 0.00 0.00 0.00 59 1020.5
20260509153935 60 280 3.0 12.0 0.00 0.00 0.00 60 1020.4
20260509152942 58 280 0.0 0.0 0.00 0.00 0.00 64 1020.4
20260509151927 56 280 0.0 0.0 0.00 0.00 0.00 66 1020.5
20260509150933 55 280 0.0 0.0 0.00 0.00 0.00 68 1020.6
20260509145940 55 280 0.0 0.0 0.00 0.00 0.00 69 1020.5
20260509144940 54 280 0.0 0.0 0.00 0.00 0.00 69 1020.4
20260509144019 53 280 0.0 0.0 0.00 0.00 0.00 71 1020.4
20260509143004 52 280 0.0 0.0 0.00 0.00 0.00 72 1020.4
20260509141942 52 280 0.0 4.0 0.00 0.00 0.00 73 1020.4
20260509140942 51 280 0.0 3.0 0.00 0.00 0.00 74 1020.5
20260509135945 50 280 0.0 0.0 0.00 0.00 0.00 75 1020.6
20260509134958 50 280 0.0 8.0 0.00 0.00 0.00 75 1020.6
20260509133939 49 289 3.0 8.0 0.00 0.00 0.00 76 1020.6
20260509133004 49 338 1.0 4.0 0.00 0.00 0.00 77 1020.6
20260509131929 48 360 0.0 3.0 0.00 0.00 0.00 79 1020.6
20260509130934 47 5 0.0 0.0 0.00 0.00 0.00 79 1020.6
20260509125937 47 44 0.0 0.0 0.00 0.00 0.00 79 1020.6
20260509125000 47 44 0.0 0.0 0.00 0.00 0.00 79 1020.5
20260509123942 47 44 0.0 0.0 0.00 0.00 0.00 80 1020.5
20260509121942 46 57 0.0 0.0 0.00 0.00 0.00 80 1020.5
20260509120945 46 57 0.0 0.0 0.00 0.00 0.00 81 1020.4
20260509115950 46 57 0.0 0.0 0.00 0.00 0.00 81 1020.5
20260509114931 46 57 0.0 0.0 0.00 0.00 0.00 80 1020.4
20260509113958 46 57 0.0 0.0 0.00 0.00 0.00 80 1020.4
20260509112942 46 57 0.0 0.0 0.00 0.00 0.00 80 1020.6